Wetbulb
59.06 58.58 57.91 57.50 56.55 54.86 53.25 53.12 54.89 53.53 53.35 53.62 53.50 53.60 53.34 53.36 53.42 52.45 50.94 50.42 50.20 50.26
59.28 58.35 57.48 57.53 56.56 54.35 54.54 53.60 53.29 53.27 52.64 52.89 53.47 53.07 52.64 52.22 52.05 51.85 51.42 52.03 50.89 50.35
58.07 57.62 57.38 56.50 55.04 54.60 54.23 54.54 53.44 52.54 52.20 53.54 53.98 52.68 52.37 52.81 52.61 51.10 51.16 51.22 50.22 50.50
57.11 56.63 56.14 55.04 54.33 54.04 54.75 54.86 52.41 51.51 51.77 51.77 51.65 52.07 51.85 51.90 51.54 50.34 50.61 51.74 50.38 49.98
56.00 55.29 54.19 53.86 54.11 54.42 54.57 53.51 51.63 51.39 51.01 51.71 51.94 52.21 51.49 52.07 51.95 50.15 49.47 50.08 49.77 49.66
54.35 53.70 53.05 53.64 53.84 54.30 52.89 52.11 51.34 51.04 50.89 51.78 51.61 51.50 51.98 51.13 50.95 51.57 50.54 51.90 52.28 52.64
53.55 52.73 52.76 53.33 53.99 53.26 52.05 51.04 50.70 51.08 51.51 52.01 51.76 51.14 51.29 51.48 51.66 51.72 51.95 52.93 52.84 51.25
52.37 52.45 52.74 53.23 53.89 52.24 51.80 50.04 50.72 51.76 51.63 52.09 51.45 51.82 51.63 51.57 52.50 52.01 50.57 49.61 51.13 53.06
51.80 51.48 52.57 53.35 51.49 50.72 50.02 49.99 50.74 51.20 51.58 51.15 51.34 48.28 49.00 50.21 52.02 50.25 48.25 48.67 50.79 52.30
51.12 51.28 52.57 51.66 49.89 49.26 48.97 49.19 50.47 51.30 51.25 50.42 52.30 46.44 46.10 47.91 52.49 49.68 49.38 50.24 50.74 50.52
51.03 51.39 51.26 49.50 48.84 48.42 50.83 49.78 49.85 51.27 50.57 50.24 50.80 44.43 43.47 45.91 53.72 51.65 52.21 51.97 52.18 52.39
51.01 50.65 48.58 47.17 47.17 48.04 49.30 49.21 50.30 50.54 49.45 51.16 52.26 43.88 43.32 48.14 52.88 52.55 52.66 52.43 50.19 54.12
51.49 48.14 47.77 48.39 47.31 47.60 47.96 48.84 50.15 48.69 49.19 47.55 49.34 44.94 43.29 48.91 51.64 51.34 53.16 53.64 53.20 45.26
48.43 48.29 48.41 48.57 47.70 47.12 47.57 48.91 50.38 50.22 49.37 49.61 48.59 49.98 43.74 45.42 52.56 49.51 51.97 50.87 51.63 51.74
MSLP
1019.58 1019.43 1019.51 1019.57 1019.58 1019.41 1019.23 1018.97 1018.86 1018.92 1018.60 1018.17 1017.78 1017.48 1017.30 1016.92 1016.72 1016.77 1016.78 1016.70 1016.63 1016.47
1019.49 1019.55 1019.50 1019.51 1019.50 1019.27 1019.20 1018.77 1018.57 1018.56 1018.26 1017.85 1017.37 1017.14 1016.92 1016.55 1016.49 1016.40 1016.26 1016.03 1016.02 1015.99
1019.45 1019.55 1019.58 1019.52 1019.32 1019.13 1018.87 1018.57 1018.45 1018.21 1017.90 1017.36 1017.02 1016.86 1016.59 1016.21 1016.05 1015.96 1015.77 1015.71 1015.65 1015.56
1019.54 1019.61 1019.53 1019.36 1019.11 1018.92 1018.60 1018.28 1018.20 1017.92 1017.54 1017.18 1016.92 1016.57 1016.23 1015.92 1015.70 1015.55 1015.38 1015.20 1015.15 1015.08
1019.52 1019.40 1019.26 1019.01 1018.80 1018.60 1018.28 1018.14 1017.99 1017.64 1017.29 1016.96 1016.63 1016.24 1015.92 1015.43 1015.26 1015.19 1015.04 1014.90 1014.82 1014.62
1019.34 1019.26 1019.06 1018.90 1018.72 1018.45 1018.22 1017.93 1017.69 1017.38 1017.03 1016.63 1016.35 1015.98 1015.61 1015.48 1015.17 1014.91 1014.82 1014.47 1014.17 1013.86
1019.19 1019.04 1018.93 1018.79 1018.53 1018.33 1018.10 1017.78 1017.39 1017.10 1016.75 1016.43 1016.14 1015.83 1015.53 1015.30 1014.98 1014.84 1014.51 1014.24 1014.00 1013.79
1018.95 1018.87 1018.76 1018.47 1018.24 1018.19 1017.91 1017.59 1017.25 1016.81 1016.52 1016.28 1016.07 1015.69 1015.54 1015.21 1014.97 1014.83 1014.65 1014.42 1013.94 1013.46
1018.88 1018.77 1018.56 1018.27 1018.25 1018.09 1017.76 1017.36 1017.00 1016.64 1016.35 1016.20 1016.01 1015.91 1015.66 1015.44 1015.12 1015.04 1014.92 1014.44 1013.94 1013.59
1018.78 1018.61 1018.40 1018.34 1018.31 1018.06 1017.68 1017.34 1016.86 1016.54 1016.38 1016.32 1015.96 1016.11 1015.78 1015.60 1015.18 1015.16 1014.96 1014.63 1014.29 1014.02
1018.80 1018.60 1018.54 1018.49 1018.29 1018.00 1017.54 1017.25 1016.97 1016.62 1016.64 1016.49 1016.30 1016.31 1015.94 1015.68 1015.28 1015.24 1015.05 1014.91 1014.62 1014.33
1018.99 1018.89 1018.86 1018.70 1018.42 1018.03 1017.63 1017.32 1016.94 1017.01 1016.95 1016.56 1016.47 1016.51 1016.20 1015.87 1015.60 1015.35 1015.24 1015.34 1015.38 1014.78
1019.31 1019.42 1019.09 1018.74 1018.50 1018.13 1017.80 1017.37 1017.10 1017.31 1017.34 1017.36 1017.04 1016.86 1016.58 1016.31 1016.16 1015.82 1015.31 1015.55 1015.71 1015.79
1019.79 1019.60 1019.26 1018.98 1018.70 1018.33 1017.82 1017.54 1017.48 1017.42 1017.70 1017.54 1017.51 1017.20 1017.02 1016.75 1016.44 1016.45 1015.94 1016.12 1016.06 1016.43
Wind_Speed
4 4 5 6 7 8 9 9 11 10 10 10 10 8 8 8 7 7 5 8 8 7
4 5 7 7 7 8 10 9 10 11 11 11 9 9 9 7 7 6 6 9 6 5
6 7 7 8 10 11 11 11 10 11 10 10 9 8 8 7 7 7 5 4 7 6
7 8 8 10 10 11 12 11 10 9 9 9 9 8 7 8 7 7 7 7 6 7
7 9 10 10 10 11 12 11 10 9 8 9 8 7 7 8 7 6 8 5 5 7
9 10 11 10 10 10 12 10 9 8 8 8 8 7 7 6 7 7 5 8 9 8
10 11 10 10 11 10 10 9 7 7 7 8 7 6 6 6 6 6 6 7 7 8
11 10 10 10 11 11 9 7 7 8 7 7 5 4 6 5 6 7 8 7 7 7
10 10 10 10 11 9 8 7 8 7 6 6 4 7 5 5 5 5 4 6 6 6
9 10 11 10 8 8 7 7 9 6 5 5 4 7 7 8 5 4 4 4 5 6
9 11 10 8 7 8 7 7 6 6 4 3 6 10 10 9 5 3 5 6 6 7
10 10 8 8 10 8 8 6 5 4 5 5 8 11 10 7 5 5 6 7 8 7
9 6 9 10 8 7 6 5 2 5 6 7 6 9 8 5 3 4 5 7 7 11
6 7 9 8 7 6 5 4 6 7 7 7 8 8 8 8 4 4 4 5 4 6
Wind_Direction
313 304 302 307 313 310 315 311 310 300 298 296 293 290 292 285 282 271 266 271 261 254
309 311 312 306 308 305 307 307 297 304 300 297 292 298 301 293 287 290 282 273 254 251
324 314 305 300 297 305 304 302 305 309 305 309 309 307 294 298 295 286 273 258 253 257
319 309 302 298 303 306 306 309 310 303 306 308 305 302 299 296 293 295 282 280 254 266
312 311 306 303 305 312 313 316 305 301 302 301 301 302 307 313 315 312 289 275 268 272
315 316 313 309 313 314 320 313 303 300 299 313 307 311 306 315 315 300 317 305 300 286
320 316 314 316 313 315 316 309 300 301 304 312 314 312 324 324 321 319 304 306 298 286
315 318 320 320 321 320 316 301 297 309 308 317 316 329 340 323 336 340 345 321 305 298
322 326 326 324 332 321 312 308 307 315 320 329 322 359 355 340 336 357 327 322 326 352
330 327 328 336 325 316 315 315 320 314 358 357 17 10 360 349 349 350 331 341 348 28
334 332 339 332 322 314 317 325 323 21 23 22 53 15 0 338 16 33 28 34 21 37
339 342 337 338 335 336 333 333 17 29 41 23 32 14 2 360 43 49 44 57 34 52
357 352 344 347 334 330 324 335 32 64 46 34 10 23 10 18 38 37 48 60 64 43
15 358 355 350 349 331 336 43 61 59 43 26 25 33 37 37 41 33 54 54 59 70